Other Public Products
Issued by NWS Grand Forks, ND

Home | Current Version | Previous Version | Graphics & Text | Print | Product List | Glossary On
Versions: 1 2 3 4 5 6 7 8 9 10 11 12 13 14 15 16 17 18 19 20 21 22 23 24 25 26 27 28 29 30 31 32 33 34 35 36 37 38 39 40 41 42 43 44 45 46 47 48 49 50
000
FPUS83 KFGF 252210
OPUFGF
PRAIRIE TO PINES WEATHER ROUNDUP
NATIONAL WEATHER SERVICE EASTERN NORTH DAKOTA/GRAND FORKS ND
400 PM CST THU DEC 25 2014

 **SATELLITE DATA USED TO AUGMENT SKY COVER AT AUTOMATED STATIONS**
 *****  WEATHER ACROSS EASTERN NORTH DAKOTA  *****

CITY           SKY/WX    TMP DP  RH WIND       PRES   REMARKS
GRAND FORKS    CLOUDY    28  24  85 N9        29.86R WCI  19
GRAND FORKS AF CLOUDY    28  28  99 N7        29.86R WCI  20
GRAND CITY NWS   N/A     27 N/A N/A NW7         N/A  WCI  19
BUXTON         NOT AVBL
DEVILS LAKE    CLOUDY    27  21  80 N10       29.85R WCI  17
FARGO          CLOUDY    30  25  81 N13       29.83R WCI  20
WAHPETON ARPT  CLOUDY    30  25  80 N12       29.83R WCI  21
$$

 *****  WEATHER ACROSS CENTRAL AND WESTERN NORTH DAKOTA  *****

CITY           SKY/WX    TMP DP  RH WIND       PRES   REMARKS
JAMESTOWN      CLOUDY    27  21  78 N12       29.83R WCI  17
BISMARCK       CLOUDY    28  21  75 NW9       29.88R WCI  19
MINOT          CLOUDY    25  19  78 NW14      29.88R WCI  13
MINOT AFB      CLOUDY    25  23  93 NW16      29.88R WCI  12
GARRISON         N/A     26  20  77 NW21      29.87R WCI  12
WILLISTON      CLOUDY    24  17  74 NW16      29.94R WCI  11
DICKINSON      CLOUDY    25  18  74 NW18      29.86R WCI  11
HETTINGER      CLOUDY    23  19  85 NW16      29.87R WCI  10
$$

 *****  OTHER OBSERVATIONS NORTHEAST NORTH DAKOTA  *****

CITY           SKY/WX    TMP DP  RH WIND       PRES   REMARKS
WALHALLA         N/A     27  25  93 N15       29.88R WCI  15
LANGDON        CLOUDY    25  21  86 N13       29.84R WCI  13
CAVALIER       CLOUDY    27  21  80 N13       29.88R WCI  16
GRAFTON        NOT AVBL
CANDO          CLOUDY    27  23  86 N8        29.86R WCI  18
FORT TOTTEN      N/A     26  24  90 N3        29.95S
ROLLA          CLOUDY    23  23 100 NW10      29.85R WCI  12
RUGBY          CLOUDY    27  23  86 NW9       29.86R WCI  17
 ***** THE ABOVE OBSERVATIONS ARE NON NWS ARE NOT QUALITY
        CONTROLLED AND MAY MIS-REPORT RAIN FOR SNOW...
$$

 *****  OTHER OBSERVATIONS SOUTHEAST NORTH DAKOTA *****

CITY           SKY/WX    TMP DP  RH WIND       PRES   REMARKS
COOPERSTOWN    NOT AVBL
VALLEY CITY    CLOUDY    27  27 100 N14       29.84R WCI  15
OAKES            N/A     28  27  93 N17       29.83R WCI  16
GWINNER        MOCLDY    30  28  93 N3        29.83S
SHEYENNE NWR     N/A     30  25  82 NW5       29.95S
BUFFALO        NOT AVBL
WYNDMERE         N/A     28  27  93 N8          N/A  WCI  20
 ***** THE ABOVE OBSERVATIONS ARE NON NWS ARE NOT QUALITY
       CONTROLLED AND MAY MIS-REPORT RAIN FOR SNOW...
$$

  *****  WEATHER ACROSS NORTHERN MINNESOTA  *****

CITY           SKY/WX    TMP DP  RH WIND       PRES   REMARKS
FLAG ISLAND    CLOUDY    28  25  86 W12       29.77R WCI  18
WARROAD        CLOUDY    27  25  93 NW7       29.80R WCI  19
ROSEAU         CLOUDY    28  23  80 NW8       29.81R WCI  20
HALLOCK        CLOUDY    28  25  86 NW13      29.85R WCI  18
THF RVR FALLS  CLOUDY    27  21  80 NW9       29.83R WCI  17
HALSTAD          N/A     29  23  79 N10         N/A  WCI  19
FOSSTON        CLOUDY    25  21  86 NW12      29.81R WCI  14
BAUDETTE       CLOUDY    28  22  78 NW6       29.78R WCI  22
WASKISH        CLOUDY    27  23  86 W3        29.79R
CROOKSTON      CLOUDY    27  21  80 N16       29.85R WCI  14
$$
  *****  WEATHER ACROSS CENTRAL AND WEST MINNESOTA  *****

CITY           SKY/WX    TMP DP  RH WIND       PRES   REMARKS
BEMIDJI        CLOUDY    28  23  82 NW10      29.78R WCI  18
PARK RAPIDS    CLOUDY    30  23  75 NW7       29.77R WCI  23
WADENA         CLOUDY    28  25  86 N8        29.78R WCI  20
DETROIT LAKES  CLOUDY    28  28 100 N9        29.81R WCI  20
MOORHEAD       CLOUDY    30  30 100 N7        29.84R WCI  23
FERGUS FALLS   CLOUDY    28  27  93 N10       29.84R WCI  19
ELBOW LAKE     CLOUDY    29  25  86 N9        29.79R WCI  20
MORRIS MN      MOCLDY    30  27  86 N13       29.79R WCI  20
STAPLES        CLOUDY    28  25  86 N3        29.78R
WHEATON        CLOUDY    27  23  86 NW13      29.84R WCI  16
$$
  *****  WEATHER ELSEWHERE ACROSS MINNESOTA  *****

CITY           SKY/WX    TMP DP  RH WIND       PRES   REMARKS
DULUTH         CLOUDY    32  26  78 W8        29.75R WCI  25
INTRNTL FALLS  CLOUDY    29  24  82 W6        29.76R WCI  23
ELY            CLOUDY    28  27  93 W3        29.74R
CLOQUET        CLOUDY    32  27  80 W3        29.76R
BRAINERD       CLOUDY    31  26  82 N7        29.78R WCI  24
HIBBING        CLOUDY    32  23  69 CALM      29.75R
ALEXANDRIA     CLOUDY    29  24  82 N9        29.78R WCI  20
SAINT CLOUD    CLOUDY    36  28  73 CALM      29.77R
MINNEAPOLIS    CLOUDY    35  28  75 E3        29.78R
$$

  *****  WEATHER ACROSS SOUTH DAKOTA  *****

CITY           SKY/WX    TMP DP  RH WIND       PRES   REMARKS
SIOUX FALLS    CLOUDY    33  28  81 NE18      29.68R WCI  22
BROOKINGS      NOT AVBL
WATERTOWN      CLOUDY    27  24  89 NE15      29.75R FOG     WCI  15
HURON          CLOUDY    28  25  88 N16       29.76R FOG     WCI  16
SISSETON         N/A     27  25  92 N14       29.81R WCI  16
ABERDEEN       MOCLDY    29  23  78 N16       29.82R WCI  17
MITCHELL         N/A     33  30  88 N18       29.72R WCI  22
PIERRE         CLOUDY    28  24  85 N17       29.79R WCI  16
MOBRIDGE       CLOUDY    30  26  85 N17       29.80R FOG     WCI  18
RAPID CITY     LGT SNOW  25  22  88 N22       29.81R VSB 1   WCI  10
$$

  *****  SOME WEATHER IN NEARBY STATES *****

CITY           SKY/WX    TMP DP  RH WIND       PRES   REMARKS
GLASGOW MT     CLOUDY    23  16  74 N9        29.97R WCI  13
GREAT FALLS MT PTSUNNY   24  20  84 CALM      29.93R
CHEYENNE WY    SNOW      24  20  84 N14       29.57R VSB 1/2 WCI  12
SCOTTSBLUFF NE LGT SNOW  29  25  85 NE20      29.65R FOG     WCI  16
OMAHA NE       PTCLDY    49  32  52 S15       29.63R
DES MOINES IA  MOCLDY    48  31  51 S12       29.71S
DAVENPORT IA   CLEAR     45  30  55 S13       29.88R
CHICAGO IL     MOCLDY    42  31  64 S10       29.96S
EAU CLAIRE WI  CLOUDY    34  28  79 SE5       29.81R
LA CROSSE WI   PTCLDY    39  29  67 S6        29.81R
$$

  *****  SOME NATIONAL WEATHER *****

CITY           SKY/WX    TMP DP  RH WIND       PRES   REMARKS
LA GUARDIA NY  PTCLDY    50  29  44 W15G25    29.93R
RALEIGH NC     CLEAR     53  31  42 VRB3      30.14R
ATLANTA GA     PTCLDY    51  34  52 NW7       30.20R
NEW ORLEANS LA PTSUNNY   56  40  55 E7        30.21S
OKLAHOMA CITY  CLOUDY    59  25  27 S24G36    29.75R
ALBUQUERQUE NM PTSUNNY   50  13  22 W8        29.61S
SALT LAKE CITY LGT SNOW  29  28  96 N6        29.71R FOG     WCI  23
LOS ANGELES CA MOSUNNY   63  24  22 N14G22    29.83S
BOISE ID       SUNNY     36  23  59 NW22      29.93S
SEATTLE WA     MOSUNNY   45  37  73 S5        30.21S
$$

*** WEATHER ACROSS MANITOBA...SASKATCHEWAN AND ONTARIO ***
                ***ONTARIO***

CITY           SKY/WX    TMP DP  RH WIND       PRES   REMARKS
GERALDTON      CLOUDY    28  25  86 W2        29.67R
THUNDER BAY    FLURRIES  34  27  75 W13G18    29.75R WCI  25
SIOUX LOOKOUT  FLURRIES  28  27  93 NW7       29.69R WCI  21
TORONTO        MOCLDY    39  28  65 W22G31    29.96R
BIG TROUT LK   FLURRIES  21  21 100 NW6       29.65R WCI  14
PICKLE LAKE    LGT SNOW  27  25  93 VRB2      29.64R
DRYDEN         CLOUDY    28  27  93 W8        29.71R WCI  20
KENORA         NOT AVBL
$$
                *** MANITOBA***

CITY           SKY/WX    TMP DP  RH WIND       PRES   REMARKS
BRANDON        CLOUDY    23  19  86 NW15      29.89R WCI  10
DAUPHIN        CLOUDY    21  18  86 W10       29.90R WCI  10
ISLAND LAKE    CLOUDY    19  18  93 N5        29.74R WCI  13
PILOT MOUND      N/A     23  19  86 N5          N/A  WCI  17
THE PAS        FLURRIES   3  -2  78 NW14G20   29.96R WCI -15
THOMPSON       LGT SNOW   9   3  78 NW8       29.84R WCI  -4
WINNIPEG       CLOUDY    25  21  86 N10G17    29.87R WCI  15
CHURCHILL      LGT SNOW   5   1  85 NW16G22   29.82R WCI -14
GILLAM         FLURRIES  19  18  93 CALM      29.76R
$$
                ***SASKATCHEWAN***

CITY           SKY/WX    TMP DP  RH WIND       PRES   REMARKS
ESTEVAN        CLOUDY    19  16  86 NW17      29.93R WCI   4
KINDERSLEY     CLOUDY     9   3  78 W5        29.98S WCI   0
LLOYDMINSTER   FLURRIES   7   3  85 NW3       29.97R
PRINCE ALBERT  MOCLDY    -2  -8  78 NW13      30.05R WCI -21
REGINA         PTCLDY     9   1  72 NW13      29.97R WCI  -7
YORKTON        LGT SNOW  10   9  92 W18       29.93R WCI  -8



USA.gov is the U.S. government's official web portal to all federal, state and local government web resources and services.